Regional Weather Roundup
Issued by NWS

Home | Current Version | Previous Version | Graphics & Text | Print | Product List | Glossary On
Versions: 1 2 3 4 5 6 7 8 9 10 11 12 13 14 15 16 17 18 19 20 21 22 23 24 25 26 27 28 29 30 31 32 33 34 35 36 37 38 39 40 41 42 43 44 45 46 47 48 49 50
000
ASUS43 KFSD 222110
RWRSD

WEATHER ROUNDUP FOR SOUTH DAKOTA
NATIONAL WEATHER SERVICE SIOUX FALLS SD
400 PM CDT SUN OCT 22 2017

NOTE: "FAIR" INDICATES FEW OR NO CLOUDS BELOW 12,000 FEET WITH NO
SIGNIFICANT WEATHER AND/OR OBSTRUCTIONS TO VISIBILITY.


SDZ001>005-009-010-012>017-222200-
NORTHWEST AND NORTH CENTRAL SOUTH DAKOTA

CITY           SKY/WX    TMP DP  RH WIND       PRES   REMARKS
BUFFALO          N/A     70  32  24 W37G52    29.69F
MOBRIDGE       CLOUDY    67  30  25 SW18      29.74F
$$

SDZ012>016-024>037-041>051-057-063-072>074-222200-
SOUTHWEST AND SOUTH CENTRAL SOUTH DAKOTA

CITY           SKY/WX    TMP DP  RH WIND       PRES   REMARKS
RAPID CTY ARPT PTSUNNY   68  28  22 SW15      29.86S
PIERRE         MOSUNNY   68  27  21 SW13      29.82F
CUSTER         CLOUDY    57  25  29 W18G29    29.96F
PHILIP         MOSUNNY   71  30  21 SW12      29.82F
PINE RIDGE     CLOUDY    71  28  20 W14G28    29.91F
SPEARFISH      FAIR      66  28  24 SW16G22   29.84F
WINNER         FAIR      70  30  22 W14       29.89S
$$

SDZ004>011-016>023-039-040-222200-
NORTHEAST SOUTH DAKOTA

CITY           SKY/WX    TMP DP  RH WIND       PRES   REMARKS
ABERDEEN       SUNNY     67  22  18 SW20G25   29.80F
WATERTOWN      SUNNY     64  29  26 SW22      29.84F
BROOKINGS      SUNNY     65  30  27 S23G29    29.89F
SISSETON         N/A     65  30  27 SW14      29.81F
$$

SDZ017-020-022-023-036>040-048>070-222200-
SOUTHEAST SOUTH DAKOTA

CITY           SKY/WX    TMP DP  RH WIND       PRES   REMARKS
SIOUX FALLS    MOSUNNY   67  32  27 SW9G28    29.92F
HURON          SUNNY     66  28  24 SW15G23   29.86F
CHAMBERLAIN    SUNNY     70  30  22 W10G18    29.87F
MITCHELL       SUNNY     69  27  20 W15G24    29.88F
YANKTON        SUNNY     68  27  21 SW14      29.93F
$$

ABBREVIATIONS USED IN REMARKS
   TC - TEMPERATURE IN CELSIUS
  WCI - WIND CHILL INDEX
   HX - HEAT INDEX
  VSB - VISIBILITY





USA.gov is the U.S. government's official web portal to all federal, state and local government web resources and services.